Precipitable_Water
0.51 0.50 0.49 0.48 0.48 0.47 0.47 0.47 0.46 0.47 0.46 0.46 0.45 0.45 0.44 0.45 0.44 0.44 0.44 0.43 0.43 0.43 0.42 0.42 0.43 0.43 0.43 0.43 0.42 0.42 0.41 0.34 0.29 0.27 0.25 0.31 0.37 0.40 0.42 0.39 0.35 0.43 0.41 0.40 0.40 0.35 0.30 0.31 0.28 0.27 0.23 0.20 0.24 0.22 0.26 0.23 0.24 0.21 0.14 0.14 0.11 0.11 0.11 0.13 0.12 0.14 0.17 0.14 0.18 0.19 0.20 0.20 0.19 0.23 0.27 0.29 0.59 0.68 0.74 0.81 0.95 1.09 1.13 1.18 1.17 1.23 1.23 1.33
0.50 0.50 0.49 0.48 0.47 0.46 0.46 0.46 0.46 0.46 0.45 0.45 0.45 0.44 0.43 0.43 0.43 0.42 0.42 0.42 0.41 0.40 0.40 0.41 0.41 0.40 0.40 0.40 0.41 0.42 0.38 0.31 0.30 0.28 0.28 0.42 0.42 0.43 0.42 0.44 0.36 0.41 0.42 0.37 0.32 0.31 0.28 0.26 0.26 0.24 0.20 0.18 0.21 0.23 0.23 0.22 0.24 0.17 0.16 0.14 0.13 0.14 0.15 0.15 0.15 0.14 0.13 0.16 0.18 0.19 0.21 0.20 0.21 0.22 0.27 0.27 0.32 0.43 0.65 0.75 0.88 0.95 1.02 1.11 1.12 1.17 1.21 1.29
0.50 0.49 0.48 0.48 0.47 0.46 0.46 0.46 0.45 0.46 0.45 0.44 0.44 0.44 0.42 0.42 0.42 0.42 0.40 0.40 0.40 0.39 0.39 0.38 0.40 0.39 0.38 0.39 0.40 0.40 0.35 0.29 0.31 0.30 0.39 0.46 0.47 0.48 0.45 0.42 0.38 0.42 0.41 0.34 0.34 0.33 0.29 0.26 0.25 0.23 0.19 0.18 0.17 0.23 0.20 0.24 0.20 0.19 0.18 0.15 0.13 0.17 0.16 0.16 0.14 0.16 0.17 0.18 0.18 0.19 0.20 0.20 0.23 0.23 0.28 0.28 0.30 0.44 0.60 0.67 0.73 0.85 0.92 0.94 1.05 1.16 1.21 1.24
0.50 0.49 0.47 0.47 0.47 0.47 0.46 0.46 0.45 0.45 0.45 0.45 0.44 0.44 0.43 0.42 0.42 0.41 0.41 0.40 0.39 0.39 0.38 0.38 0.38 0.38 0.38 0.37 0.38 0.39 0.31 0.25 0.25 0.32 0.41 0.42 0.51 0.52 0.45 0.41 0.41 0.43 0.46 0.42 0.38 0.36 0.35 0.32 0.26 0.23 0.20 0.18 0.18 0.23 0.16 0.25 0.16 0.20 0.16 0.14 0.16 0.18 0.14 0.16 0.16 0.18 0.18 0.19 0.18 0.20 0.20 0.20 0.23 0.24 0.25 0.30 0.26 0.38 0.50 0.70 0.80 0.83 0.91 0.95 1.04 1.13 1.18 1.16
0.50 0.49 0.48 0.47 0.47 0.46 0.46 0.45 0.45 0.44 0.45 0.44 0.44 0.43 0.43 0.42 0.41 0.40 0.41 0.40 0.40 0.39 0.38 0.37 0.37 0.37 0.36 0.36 0.35 0.36 0.25 0.15 0.29 0.41 0.45 0.46 0.55 0.51 0.45 0.41 0.44 0.46 0.43 0.39 0.36 0.35 0.31 0.28 0.25 0.22 0.19 0.18 0.18 0.19 0.17 0.23 0.19 0.24 0.16 0.16 0.19 0.18 0.12 0.19 0.19 0.19 0.18 0.18 0.19 0.20 0.19 0.20 0.22 0.24 0.24 0.25 0.22 0.21 0.31 0.52 0.69 0.85 1.00 0.97 1.01 1.10 1.14 1.09
0.50 0.49 0.48 0.47 0.45 0.45 0.45 0.44 0.44 0.43 0.43 0.44 0.43 0.43 0.42 0.41 0.41 0.40 0.40 0.41 0.40 0.39 0.38 0.38 0.37 0.35 0.35 0.35 0.32 0.30 0.19 0.08 0.36 0.35 0.49 0.53 0.57 0.51 0.44 0.43 0.45 0.46 0.39 0.35 0.32 0.29 0.28 0.27 0.23 0.20 0.18 0.20 0.17 0.15 0.18 0.21 0.20 0.15 0.17 0.17 0.19 0.17 0.15 0.20 0.19 0.19 0.18 0.18 0.19 0.19 0.21 0.20 0.21 0.22 0.25 0.25 0.24 0.25 0.32 0.45 0.52 0.75 1.00 1.05 1.10 1.09 1.04 1.06
0.49 0.48 0.47 0.46 0.45 0.44 0.44 0.43 0.42 0.41 0.41 0.42 0.42 0.42 0.42 0.41 0.40 0.40 0.39 0.40 0.40 0.39 0.38 0.38 0.36 0.36 0.33 0.32 0.34 0.23 0.15 0.11 0.16 0.36 0.48 0.58 0.58 0.53 0.51 0.48 0.47 0.39 0.36 0.31 0.30 0.27 0.27 0.23 0.21 0.18 0.17 0.18 0.20 0.17 0.20 0.19 0.20 0.15 0.16 0.21 0.19 0.19 0.16 0.18 0.18 0.19 0.19 0.20 0.19 0.21 0.22 0.19 0.20 0.20 0.24 0.22 0.24 0.27 0.40 0.48 0.62 0.80 0.97 1.00 1.03 1.05 1.02 1.04
0.48 0.47 0.46 0.45 0.44 0.44 0.44 0.43 0.43 0.42 0.42 0.41 0.41 0.41 0.41 0.41 0.40 0.39 0.39 0.38 0.39 0.39 0.38 0.36 0.37 0.35 0.34 0.28 0.23 0.16 0.13 0.12 0.18 0.42 0.50 0.48 0.57 0.53 0.55 0.52 0.45 0.37 0.32 0.29 0.27 0.25 0.24 0.21 0.19 0.19 0.17 0.17 0.20 0.18 0.20 0.17 0.18 0.16 0.14 0.17 0.18 0.19 0.19 0.20 0.19 0.20 0.21 0.20 0.21 0.20 0.19 0.19 0.21 0.21 0.23 0.22 0.23 0.35 0.56 0.65 0.77 0.88 0.92 0.94 1.01 1.01 1.01 1.00
0.48 0.46 0.45 0.45 0.44 0.44 0.44 0.44 0.44 0.44 0.43 0.43 0.43 0.43 0.43 0.41 0.41 0.39 0.38 0.38 0.38 0.39 0.38 0.37 0.36 0.35 0.36 0.28 0.19 0.10 0.11 0.16 0.25 0.45 0.57 0.50 0.50 0.50 0.49 0.42 0.44 0.36 0.33 0.31 0.29 0.26 0.23 0.21 0.20 0.18 0.16 0.15 0.20 0.18 0.20 0.16 0.16 0.16 0.17 0.19 0.19 0.18 0.19 0.21 0.21 0.20 0.20 0.20 0.19 0.16 0.18 0.21 0.21 0.23 0.21 0.22 0.38 0.47 0.58 0.74 0.83 0.89 0.90 0.95 0.98 0.99 0.99 0.98
0.47 0.46 0.45 0.44 0.44 0.44 0.44 0.43 0.43 0.44 0.44 0.43 0.43 0.43 0.43 0.42 0.41 0.41 0.40 0.39 0.38 0.38 0.38 0.37 0.36 0.36 0.29 0.24 0.18 0.11 0.17 0.22 0.38 0.51 0.58 0.53 0.43 0.41 0.41 0.40 0.40 0.37 0.32 0.31 0.28 0.27 0.24 0.23 0.21 0.21 0.21 0.18 0.20 0.20 0.22 0.17 0.22 0.23 0.20 0.19 0.19 0.21 0.21 0.21 0.17 0.18 0.19 0.17 0.18 0.15 0.17 0.20 0.21 0.21 0.19 0.30 0.45 0.51 0.64 0.73 0.82 0.88 0.90 0.93 0.96 0.98 1.01 0.99
0.47 0.46 0.46 0.46 0.45 0.44 0.43 0.42 0.43 0.43 0.42 0.43 0.43 0.44 0.44 0.43 0.41 0.40 0.40 0.39 0.39 0.39 0.38 0.36 0.37 0.32 0.27 0.18 0.12 0.10 0.19 0.34 0.41 0.49 0.53 0.52 0.42 0.39 0.41 0.40 0.40 0.34 0.33 0.30 0.28 0.28 0.27 0.25 0.26 0.22 0.20 0.18 0.19 0.22 0.20 0.19 0.22 0.21 0.19 0.18 0.17 0.17 0.18 0.18 0.17 0.16 0.17 0.16 0.17 0.17 0.16 0.19 0.20 0.20 0.20 0.22 0.44 0.50 0.63 0.67 0.73 0.81 0.81 0.88 0.94 0.95 0.97 0.98
0.48 0.47 0.46 0.46 0.46 0.44 0.43 0.43 0.42 0.42 0.43 0.43 0.44 0.43 0.43 0.42 0.41 0.40 0.39 0.40 0.39 0.39 0.38 0.37 0.37 0.33 0.28 0.20 0.13 0.13 0.22 0.38 0.42 0.49 0.50 0.49 0.43 0.44 0.45 0.45 0.41 0.37 0.32 0.27 0.27 0.28 0.27 0.28 0.25 0.21 0.19 0.23 0.17 0.23 0.17 0.23 0.19 0.19 0.19 0.13 0.15 0.16 0.15 0.16 0.16 0.17 0.18 0.15 0.18 0.18 0.15 0.14 0.16 0.16 0.21 0.28 0.40 0.47 0.59 0.64 0.69 0.72 0.75 0.81 0.88 0.90 0.90 0.92
0.49 0.48 0.47 0.46 0.46 0.45 0.43 0.42 0.42 0.42 0.43 0.43 0.42 0.43 0.42 0.41 0.39 0.39 0.40 0.39 0.41 0.41 0.40 0.40 0.36 0.36 0.25 0.16 0.16 0.24 0.29 0.39 0.41 0.42 0.47 0.47 0.46 0.48 0.47 0.47 0.46 0.44 0.41 0.35 0.30 0.29 0.27 0.27 0.27 0.22 0.25 0.23 0.22 0.18 0.25 0.22 0.20 0.20 0.18 0.15 0.15 0.14 0.13 0.17 0.18 0.16 0.14 0.16 0.17 0.16 0.09 0.11 0.14 0.16 0.20 0.23 0.41 0.47 0.55 0.60 0.63 0.66 0.69 0.75 0.81 0.84 0.85 0.93
0.49 0.48 0.47 0.47 0.45 0.45 0.43 0.42 0.41 0.42 0.42 0.42 0.42 0.41 0.40 0.39 0.39 0.41 0.42 0.41 0.43 0.42 0.40 0.41 0.41 0.31 0.29 0.15 0.16 0.21 0.29 0.31 0.34 0.34 0.37 0.42 0.40 0.39 0.42 0.45 0.49 0.48 0.44 0.38 0.33 0.32 0.28 0.27 0.28 0.28 0.28 0.24 0.22 0.27 0.22 0.21 0.20 0.14 0.18 0.17 0.13 0.13 0.14 0.17 0.16 0.16 0.15 0.17 0.17 0.16 0.10 0.13 0.17 0.17 0.19 0.28 0.40 0.46 0.52 0.59 0.60 0.63 0.68 0.72 0.73 0.74 0.79 0.90
0.48 0.48 0.47 0.46 0.45 0.44 0.43 0.42 0.41 0.41 0.42 0.41 0.41 0.40 0.38 0.40 0.44 0.44 0.45 0.45 0.45 0.44 0.41 0.46 0.41 0.33 0.23 0.19 0.24 0.28 0.27 0.25 0.20 0.24 0.35 0.32 0.34 0.36 0.36 0.43 0.45 0.47 0.45 0.40 0.32 0.30 0.28 0.26 0.26 0.22 0.20 0.28 0.28 0.21 0.19 0.19 0.20 0.18 0.14 0.12 0.14 0.12 0.15 0.17 0.17 0.16 0.15 0.17 0.18 0.15 0.11 0.11 0.16 0.19 0.19 0.32 0.42 0.46 0.54 0.63 0.63 0.62 0.67 0.71 0.73 0.73 0.77 0.85
0.48 0.47 0.47 0.46 0.44 0.43 0.42 0.41 0.40 0.40 0.41 0.41 0.39 0.38 0.42 0.46 0.45 0.43 0.44 0.41 0.42 0.42 0.46 0.37 0.35 0.28 0.18 0.16 0.34 0.47 0.40 0.27 0.26 0.27 0.31 0.30 0.31 0.28 0.36 0.39 0.46 0.46 0.44 0.38 0.33 0.29 0.26 0.24 0.21 0.22 0.24 0.24 0.23 0.20 0.19 0.18 0.18 0.18 0.14 0.17 0.17 0.15 0.16 0.15 0.17 0.18 0.18 0.17 0.17 0.15 0.13 0.15 0.15 0.18 0.20 0.27 0.36 0.45 0.50 0.63 0.66 0.64 0.67 0.71 0.73 0.72 0.73 0.80
0.47 0.47 0.46 0.45 0.44 0.43 0.42 0.39 0.39 0.40 0.40 0.39 0.38 0.39 0.44 0.47 0.47 0.44 0.44 0.44 0.43 0.44 0.41 0.28 0.33 0.32 0.15 0.29 0.39 0.28 0.30 0.36 0.42 0.43 0.40 0.36 0.33 0.32 0.35 0.37 0.39 0.40 0.42 0.36 0.33 0.26 0.23 0.20 0.23 0.22 0.25 0.21 0.21 0.21 0.17 0.16 0.16 0.17 0.17 0.14 0.18 0.16 0.16 0.14 0.17 0.18 0.18 0.17 0.16 0.18 0.13 0.14 0.17 0.20 0.18 0.22 0.31 0.38 0.44 0.58 0.65 0.64 0.65 0.70 0.75 0.71 0.69 0.73
0.46 0.46 0.45 0.44 0.43 0.42 0.41 0.39 0.39 0.39 0.39 0.38 0.36 0.39 0.42 0.46 0.48 0.47 0.44 0.44 0.45 0.42 0.43 0.43 0.35 0.24 0.15 0.19 0.14 0.22 0.36 0.34 0.41 0.46 0.43 0.44 0.38 0.33 0.34 0.33 0.37 0.36 0.33 0.28 0.29 0.22 0.20 0.18 0.18 0.15 0.17 0.19 0.21 0.19 0.15 0.13 0.16 0.18 0.17 0.15 0.16 0.17 0.16 0.16 0.16 0.18 0.17 0.18 0.15 0.16 0.15 0.15 0.15 0.17 0.19 0.19 0.25 0.32 0.39 0.51 0.61 0.61 0.59 0.65 0.71 0.70 0.68 0.70
0.46 0.45 0.45 0.43 0.43 0.42 0.41 0.40 0.39 0.39 0.38 0.37 0.38 0.45 0.48 0.49 0.48 0.44 0.38 0.38 0.29 0.25 0.19 0.25 0.21 0.09 0.09 0.20 0.22 0.29 0.33 0.36 0.38 0.37 0.37 0.39 0.38 0.34 0.33 0.36 0.37 0.30 0.24 0.22 0.23 0.21 0.18 0.20 0.16 0.16 0.14 0.15 0.16 0.16 0.16 0.17 0.19 0.19 0.19 0.18 0.18 0.17 0.17 0.17 0.18 0.20 0.18 0.16 0.15 0.15 0.14 0.15 0.15 0.16 0.19 0.20 0.20 0.27 0.37 0.46 0.50 0.56 0.58 0.61 0.67 0.70 0.68 0.67
0.45 0.44 0.43 0.43 0.43 0.42 0.41 0.40 0.39 0.38 0.38 0.35 0.37 0.39 0.38 0.34 0.30 0.28 0.34 0.34 0.24 0.18 0.20 0.22 0.21 0.18 0.16 0.19 0.23 0.31 0.33 0.32 0.26 0.34 0.40 0.42 0.36 0.31 0.28 0.32 0.32 0.30 0.27 0.20 0.24 0.22 0.19 0.16 0.12 0.12 0.13 0.15 0.18 0.18 0.20 0.23 0.21 0.19 0.18 0.17 0.16 0.17 0.17 0.19 0.19 0.20 0.20 0.17 0.15 0.15 0.15 0.15 0.15 0.15 0.18 0.21 0.22 0.22 0.26 0.37 0.43 0.49 0.53 0.54 0.58 0.63 0.66 0.68
0.44 0.43 0.43 0.43 0.43 0.42 0.41 0.40 0.38 0.38 0.38 0.37 0.36 0.29 0.21 0.22 0.14 0.18 0.22 0.20 0.23 0.26 0.22 0.21 0.22 0.21 0.19 0.24 0.23 0.26 0.23 0.26 0.30 0.33 0.40 0.47 0.38 0.28 0.23 0.27 0.26 0.22 0.24 0.27 0.26 0.28 0.20 0.15 0.14 0.14 0.16 0.19 0.22 0.23 0.24 0.23 0.21 0.19 0.18 0.18 0.18 0.18 0.17 0.21 0.20 0.22 0.21 0.16 0.15 0.17 0.16 0.14 0.14 0.15 0.17 0.20 0.23 0.20 0.20 0.26 0.38 0.43 0.47 0.51 0.53 0.55 0.59 0.67
0.44 0.43 0.43 0.43 0.43 0.42 0.41 0.39 0.38 0.37 0.38 0.38 0.32 0.24 0.27 0.27 0.32 0.36 0.28 0.17 0.21 0.25 0.25 0.24 0.27 0.22 0.26 0.25 0.28 0.28 0.23 0.20 0.23 0.32 0.43 0.44 0.35 0.22 0.24 0.20 0.21 0.20 0.28 0.27 0.24 0.19 0.16 0.13 0.16 0.19 0.24 0.24 0.24 0.23 0.23 0.21 0.21 0.21 0.19 0.19 0.18 0.18 0.19 0.22 0.21 0.20 0.20 0.17 0.16 0.17 0.16 0.16 0.16 0.15 0.17 0.19 0.22 0.22 0.21 0.22 0.28 0.39 0.40 0.43 0.47 0.51 0.54 0.62
0.45 0.44 0.44 0.44 0.43 0.43 0.41 0.40 0.37 0.36 0.35 0.32 0.27 0.26 0.26 0.37 0.44 0.46 0.37 0.24 0.20 0.28 0.26 0.26 0.23 0.24 0.25 0.30 0.30 0.31 0.18 0.14 0.13 0.23 0.34 0.40 0.33 0.26 0.26 0.17 0.20 0.24 0.29 0.25 0.18 0.18 0.15 0.17 0.18 0.25 0.24 0.20 0.20 0.21 0.22 0.22 0.22 0.21 0.20 0.18 0.16 0.19 0.18 0.17 0.21 0.20 0.20 0.18 0.15 0.16 0.15 0.16 0.16 0.16 0.16 0.18 0.20 0.20 0.21 0.22 0.23 0.33 0.40 0.41 0.45 0.53 0.57 0.56
0.45 0.44 0.44 0.43 0.44 0.42 0.41 0.38 0.38 0.36 0.33 0.29 0.25 0.28 0.37 0.43 0.44 0.44 0.32 0.20 0.16 0.25 0.29 0.30 0.29 0.28 0.27 0.26 0.34 0.27 0.18 0.17 0.16 0.16 0.35 0.35 0.28 0.29 0.25 0.19 0.23 0.25 0.25 0.24 0.21 0.20 0.19 0.25 0.26 0.25 0.22 0.19 0.20 0.21 0.21 0.20 0.18 0.20 0.19 0.19 0.18 0.19 0.20 0.18 0.18 0.21 0.22 0.19 0.18 0.16 0.15 0.14 0.14 0.14 0.15 0.16 0.18 0.19 0.20 0.21 0.22 0.26 0.34 0.43 0.49 0.57 0.60 0.57
0.44 0.44 0.43 0.44 0.43 0.43 0.39 0.39 0.33 0.31 0.33 0.27 0.27 0.36 0.42 0.44 0.45 0.46 0.30 0.24 0.23 0.24 0.37 0.34 0.35 0.31 0.34 0.41 0.38 0.27 0.25 0.23 0.19 0.22 0.27 0.30 0.30 0.28 0.24 0.27 0.26 0.24 0.25 0.27 0.25 0.23 0.24 0.28 0.26 0.20 0.20 0.19 0.20 0.20 0.20 0.20 0.17 0.18 0.22 0.20 0.19 0.20 0.18 0.18 0.18 0.17 0.15 0.15 0.20 0.16 0.11 0.13 0.16 0.18 0.18 0.20 0.22 0.16 0.17 0.18 0.19 0.21 0.26 0.36 0.43 0.48 0.54 0.59
0.44 0.44 0.44 0.44 0.43 0.40 0.39 0.33 0.33 0.33 0.26 0.28 0.34 0.42 0.45 0.46 0.50 0.44 0.31 0.18 0.16 0.25 0.31 0.27 0.38 0.28 0.40 0.33 0.35 0.32 0.28 0.19 0.22 0.21 0.25 0.28 0.37 0.32 0.31 0.27 0.27 0.24 0.26 0.27 0.26 0.27 0.27 0.30 0.25 0.21 0.20 0.20 0.20 0.20 0.22 0.21 0.18 0.17 0.20 0.24 0.21 0.18 0.18 0.18 0.18 0.17 0.13 0.12 0.21 0.20 0.12 0.11 0.18 0.20 0.20 0.22 0.20 0.18 0.23 0.22 0.22 0.25 0.25 0.28 0.37 0.48 0.54 0.59
0.44 0.44 0.44 0.44 0.43 0.41 0.30 0.26 0.39 0.31 0.24 0.28 0.39 0.46 0.45 0.46 0.54 0.43 0.24 0.17 0.12 0.26 0.24 0.30 0.32 0.30 0.35 0.32 0.33 0.33 0.16 0.19 0.24 0.23 0.21 0.30 0.30 0.37 0.28 0.28 0.27 0.28 0.32 0.31 0.25 0.20 0.24 0.25 0.25 0.24 0.23 0.21 0.20 0.19 0.23 0.21 0.19 0.18 0.25 0.22 0.20 0.19 0.19 0.19 0.18 0.17 0.16 0.21 0.22 0.19 0.15 0.12 0.11 0.15 0.23 0.25 0.21 0.21 0.25 0.28 0.29 0.30 0.31 0.31 0.32 0.43 0.59 0.69
0.44 0.44 0.45 0.44 0.43 0.41 0.31 0.31 0.27 0.22 0.24 0.36 0.41 0.41 0.48 0.46 0.46 0.44 0.22 0.09 0.10 0.26 0.22 0.27 0.29 0.38 0.32 0.30 0.38 0.28 0.27 0.26 0.19 0.20 0.23 0.30 0.34 0.33 0.27 0.29 0.25 0.25 0.28 0.26 0.17 0.31 0.27 0.25 0.25 0.24 0.23 0.22 0.21 0.23 0.26 0.25 0.20 0.23 0.24 0.22 0.20 0.21 0.21 0.20 0.19 0.19 0.19 0.19 0.15 0.18 0.18 0.12 0.11 0.15 0.25 0.27 0.20 0.21 0.26 0.36 0.37 0.41 0.42 0.41 0.44 0.48 0.58 0.72
0.44 0.44 0.44 0.44 0.42 0.41 0.40 0.33 0.29 0.23 0.29 0.39 0.42 0.44 0.44 0.48 0.36 0.24 0.17 0.10 0.25 0.22 0.35 0.26 0.40 0.33 0.31 0.33 0.30 0.28 0.27 0.28 0.24 0.27 0.27 0.27 0.33 0.33 0.23 0.28 0.30 0.31 0.31 0.27 0.22 0.30 0.30 0.28 0.30 0.28 0.26 0.23 0.24 0.24 0.26 0.27 0.21 0.24 0.24 0.23 0.22 0.22 0.21 0.21 0.20 0.19 0.20 0.16 0.12 0.15 0.20 0.14 0.13 0.15 0.23 0.26 0.20 0.21 0.32 0.44 0.42 0.47 0.51 0.51 0.49 0.56 0.67 0.76
0.44 0.43 0.43 0.43 0.40 0.38 0.37 0.37 0.27 0.33 0.34 0.38 0.40 0.41 0.41 0.33 0.26 0.14 0.10 0.08 0.24 0.18 0.22 0.26 0.24 0.22 0.26 0.24 0.26 0.29 0.24 0.25 0.27 0.29 0.25 0.20 0.26 0.30 0.31 0.35 0.30 0.28 0.27 0.29 0.27 0.30 0.30 0.32 0.32 0.29 0.26 0.27 0.27 0.28 0.28 0.26 0.25 0.28 0.23 0.21 0.21 0.21 0.23 0.22 0.21 0.21 0.19 0.14 0.13 0.16 0.22 0.18 0.12 0.14 0.17 0.22 0.33 0.36 0.38 0.43 0.48 0.52 0.56 0.60 0.60 0.56 0.64 0.74
0.43 0.43 0.42 0.43 0.32 0.36 0.34 0.25 0.31 0.34 0.37 0.39 0.42 0.37 0.31 0.26 0.17 0.10 0.08 0.14 0.18 0.19 0.22 0.22 0.20 0.23 0.23 0.22 0.22 0.27 0.25 0.27 0.24 0.29 0.22 0.23 0.21 0.24 0.26 0.26 0.31 0.27 0.27 0.27 0.26 0.27 0.28 0.28 0.27 0.28 0.31 0.30 0.28 0.24 0.25 0.27 0.27 0.24 0.21 0.20 0.21 0.21 0.22 0.21 0.21 0.21 0.15 0.12 0.16 0.21 0.21 0.21 0.12 0.13 0.20 0.31 0.34 0.40 0.37 0.38 0.43 0.46 0.54 0.59 0.62 0.64 0.61 0.70
0.42 0.42 0.42 0.39 0.40 0.43 0.29 0.27 0.31 0.38 0.36 0.41 0.38 0.25 0.22 0.12 0.12 0.08 0.08 0.17 0.11 0.16 0.16 0.18 0.21 0.20 0.21 0.23 0.25 0.24 0.25 0.24 0.26 0.27 0.24 0.20 0.18 0.17 0.19 0.19 0.21 0.18 0.19 0.20 0.19 0.26 0.24 0.25 0.28 0.30 0.32 0.29 0.27 0.23 0.24 0.24 0.24 0.22 0.21 0.20 0.17 0.17 0.20 0.16 0.19 0.15 0.13 0.12 0.23 0.21 0.20 0.17 0.15 0.16 0.30 0.34 0.38 0.39 0.45 0.42 0.44 0.50 0.57 0.61 0.64 0.66 0.68 0.67
0.42 0.40 0.41 0.40 0.43 0.39 0.40 0.44 0.45 0.39 0.41 0.38 0.29 0.23 0.15 0.10 0.08 0.10 0.10 0.14 0.13 0.16 0.17 0.18 0.19 0.18 0.19 0.21 0.24 0.28 0.29 0.22 0.24 0.27 0.26 0.25 0.22 0.19 0.21 0.20 0.25 0.19 0.16 0.22 0.19 0.23 0.23 0.27 0.28 0.29 0.30 0.30 0.28 0.21 0.22 0.19 0.22 0.22 0.20 0.19 0.17 0.14 0.16 0.14 0.15 0.17 0.16 0.18 0.24 0.22 0.23 0.15 0.18 0.26 0.33 0.37 0.38 0.41 0.47 0.50 0.51 0.55 0.61 0.65 0.62 0.67 0.67 0.68
0.40 0.40 0.36 0.44 0.45 0.46 0.47 0.50 0.48 0.43 0.35 0.33 0.26 0.16 0.15 0.08 0.08 0.14 0.14 0.11 0.14 0.17 0.18 0.18 0.17 0.18 0.18 0.19 0.24 0.28 0.25 0.29 0.24 0.25 0.25 0.23 0.23 0.21 0.22 0.23 0.26 0.21 0.20 0.27 0.20 0.21 0.17 0.20 0.23 0.25 0.23 0.29 0.26 0.24 0.25 0.24 0.24 0.21 0.23 0.21 0.19 0.18 0.16 0.15 0.15 0.13 0.15 0.16 0.24 0.26 0.19 0.16 0.15 0.19 0.38 0.41 0.46 0.45 0.50 0.54 0.59 0.64 0.70 0.71 0.71 0.71 0.70 0.68
0.38 0.38 0.44 0.49 0.50 0.51 0.49 0.48 0.45 0.42 0.36 0.24 0.19 0.13 0.08 0.07 0.11 0.12 0.12 0.14 0.14 0.14 0.14 0.18 0.16 0.15 0.16 0.18 0.22 0.28 0.32 0.32 0.30 0.27 0.24 0.22 0.21 0.22 0.23 0.21 0.23 0.24 0.22 0.18 0.22 0.23 0.20 0.19 0.28 0.32 0.30 0.30 0.25 0.26 0.27 0.26 0.25 0.25 0.24 0.24 0.21 0.20 0.24 0.18 0.23 0.20 0.20 0.19 0.22 0.22 0.18 0.23 0.25 0.39 0.44 0.44 0.47 0.49 0.51 0.55 0.64 0.65 0.72 0.73 0.74 0.72 0.69 0.71
0.36 0.43 0.51 0.47 0.47 0.50 0.50 0.46 0.43 0.39 0.30 0.21 0.15 0.11 0.08 0.11 0.10 0.10 0.15 0.16 0.16 0.13 0.12 0.11 0.12 0.12 0.15 0.16 0.20 0.22 0.33 0.33 0.32 0.28 0.27 0.25 0.26 0.25 0.26 0.24 0.22 0.21 0.24 0.18 0.26 0.19 0.21 0.18 0.27 0.29 0.30 0.28 0.27 0.28 0.26 0.27 0.18 0.24 0.23 0.19 0.21 0.25 0.23 0.22 0.21 0.24 0.21 0.18 0.17 0.23 0.23 0.23 0.28 0.30 0.35 0.45 0.44 0.48 0.50 0.55 0.61 0.67 0.71 0.74 0.69 0.71 0.83 0.85
0.34 0.47 0.48 0.50 0.51 0.56 0.50 0.44 0.42 0.35 0.25 0.20 0.13 0.09 0.13 0.11 0.14 0.14 0.17 0.17 0.17 0.14 0.13 0.10 0.15 0.11 0.14 0.15 0.17 0.20 0.25 0.31 0.33 0.29 0.27 0.28 0.27 0.29 0.30 0.31 0.34 0.28 0.28 0.29 0.29 0.31 0.23 0.21 0.29 0.27 0.24 0.28 0.30 0.29 0.28 0.27 0.26 0.28 0.21 0.23 0.27 0.28 0.27 0.23 0.18 0.21 0.18 0.15 0.18 0.23 0.19 0.19 0.22 0.18 0.40 0.47 0.45 0.45 0.48 0.54 0.60 0.67 0.70 0.69 0.73 0.78 0.83 0.81
0.37 0.46 0.53 0.51 0.54 0.60 0.56 0.49 0.40 0.29 0.22 0.16 0.11 0.17 0.14 0.12 0.15 0.18 0.19 0.17 0.18 0.15 0.12 0.09 0.15 0.12 0.13 0.15 0.17 0.18 0.23 0.23 0.31 0.30 0.30 0.30 0.30 0.42 0.35 0.34 0.38 0.35 0.35 0.35 0.30 0.36 0.31 0.23 0.29 0.30 0.29 0.30 0.32 0.30 0.27 0.28 0.28 0.24 0.23 0.32 0.23 0.21 0.19 0.22 0.20 0.16 0.16 0.16 0.18 0.21 0.23 0.21 0.21 0.24 0.34 0.42 0.42 0.45 0.48 0.55 0.59 0.63 0.67 0.70 0.73 0.78 0.81 0.88
0.43 0.46 0.39 0.53 0.62 0.64 0.61 0.56 0.38 0.24 0.17 0.12 0.11 0.08 0.14 0.17 0.22 0.20 0.21 0.20 0.19 0.17 0.13 0.13 0.14 0.13 0.14 0.16 0.17 0.19 0.21 0.20 0.29 0.31 0.29 0.33 0.29 0.45 0.44 0.43 0.41 0.43 0.42 0.40 0.33 0.35 0.36 0.25 0.28 0.33 0.30 0.32 0.31 0.28 0.21 0.24 0.28 0.28 0.28 0.26 0.29 0.26 0.25 0.24 0.23 0.21 0.20 0.17 0.17 0.18 0.22 0.18 0.26 0.34 0.37 0.40 0.43 0.47 0.50 0.56 0.59 0.63 0.65 0.69 0.69 0.78 0.81 0.83
0.39 0.37 0.40 0.61 0.65 0.67 0.65 0.58 0.34 0.22 0.16 0.11 0.11 0.13 0.19 0.18 0.22 0.26 0.26 0.22 0.20 0.17 0.18 0.14 0.13 0.15 0.13 0.16 0.17 0.18 0.21 0.21 0.24 0.31 0.29 0.39 0.31 0.47 0.45 0.47 0.45 0.47 0.46 0.44 0.39 0.40 0.34 0.35 0.26 0.34 0.34 0.33 0.27 0.28 0.24 0.27 0.25 0.23 0.23 0.22 0.25 0.26 0.29 0.28 0.30 0.24 0.22 0.20 0.18 0.18 0.17 0.22 0.36 0.42 0.41 0.41 0.46 0.52 0.55 0.55 0.58 0.61 0.64 0.68 0.71 0.73 0.75 0.84
0.43 0.45 0.44 0.65 0.64 0.68 0.63 0.46 0.34 0.19 0.18 0.21 0.20 0.22 0.20 0.24 0.26 0.28 0.27 0.26 0.25 0.24 0.21 0.18 0.17 0.15 0.17 0.15 0.17 0.19 0.21 0.21 0.23 0.25 0.28 0.34 0.35 0.34 0.48 0.49 0.49 0.46 0.47 0.42 0.39 0.42 0.35 0.34 0.26 0.31 0.29 0.28 0.29 0.38 0.36 0.34 0.34 0.29 0.26 0.23 0.24 0.25 0.24 0.19 0.19 0.24 0.23 0.20 0.19 0.18 0.17 0.24 0.37 0.49 0.48 0.46 0.51 0.55 0.58 0.59 0.60 0.63 0.64 0.68 0.72 0.75 0.79 0.81
0.38 0.32 0.42 0.64 0.67 0.67 0.51 0.34 0.30 0.33 0.30 0.25 0.26 0.26 0.27 0.31 0.27 0.29 0.27 0.28 0.26 0.25 0.24 0.21 0.20 0.17 0.18 0.17 0.19 0.20 0.20 0.21 0.23 0.26 0.33 0.34 0.37 0.39 0.48 0.53 0.50 0.51 0.45 0.41 0.41 0.47 0.45 0.41 0.33 0.28 0.30 0.33 0.36 0.40 0.42 0.39 0.38 0.36 0.33 0.29 0.30 0.30 0.29 0.25 0.20 0.22 0.24 0.22 0.25 0.24 0.20 0.25 0.43 0.50 0.52 0.52 0.51 0.55 0.57 0.61 0.62 0.65 0.68 0.70 0.73 0.75 0.78 0.81
0.40 0.46 0.60 0.65 0.69 0.59 0.43 0.30 0.29 0.28 0.28 0.30 0.31 0.29 0.30 0.28 0.28 0.28 0.25 0.27 0.23 0.25 0.24 0.20 0.22 0.19 0.21 0.19 0.20 0.20 0.22 0.20 0.22 0.28 0.36 0.35 0.36 0.40 0.49 0.52 0.52 0.49 0.49 0.48 0.47 0.48 0.47 0.37 0.33 0.33 0.35 0.38 0.40 0.42 0.42 0.42 0.39 0.35 0.35 0.35 0.33 0.28 0.29 0.27 0.27 0.31 0.25 0.27 0.22 0.21 0.20 0.26 0.43 0.53 0.56 0.55 0.55 0.57 0.60 0.61 0.64 0.65 0.68 0.70 0.72 0.74 0.76 0.78
0.46 0.44 0.47 0.64 0.69 0.59 0.38 0.22 0.22 0.24 0.26 0.28 0.28 0.27 0.29 0.29 0.26 0.25 0.23 0.26 0.24 0.24 0.23 0.23 0.22 0.22 0.23 0.23 0.22 0.19 0.24 0.18 0.24 0.27 0.32 0.35 0.35 0.47 0.49 0.49 0.54 0.52 0.50 0.48 0.42 0.54 0.37 0.43 0.35 0.31 0.31 0.31 0.34 0.36 0.36 0.41 0.38 0.36 0.39 0.39 0.36 0.35 0.33 0.32 0.32 0.31 0.23 0.25 0.25 0.24 0.17 0.31 0.45 0.54 0.56 0.53 0.53 0.54 0.56 0.61 0.63 0.63 0.67 0.69 0.72 0.75 0.76 0.77
0.46 0.50 0.51 0.52 0.60 0.52 0.33 0.32 0.27 0.24 0.25 0.24 0.24 0.23 0.24 0.24 0.26 0.26 0.26 0.25 0.26 0.25 0.24 0.24 0.24 0.25 0.22 0.23 0.21 0.21 0.24 0.20 0.21 0.27 0.29 0.34 0.36 0.45 0.49 0.48 0.51 0.47 0.52 0.58 0.53 0.61 0.42 0.42 0.36 0.28 0.24 0.22 0.21 0.20 0.25 0.30 0.33 0.41 0.39 0.37 0.38 0.34 0.34 0.29 0.23 0.25 0.21 0.24 0.26 0.24 0.22 0.36 0.49 0.52 0.52 0.53 0.52 0.54 0.58 0.61 0.63 0.66 0.66 0.68 0.71 0.73 0.74 0.75
0.37 0.26 0.40 0.44 0.48 0.45 0.36 0.36 0.32 0.28 0.24 0.22 0.19 0.21 0.24 0.23 0.26 0.29 0.28 0.27 0.29 0.28 0.26 0.26 0.25 0.24 0.22 0.21 0.20 0.20 0.20 0.23 0.20 0.23 0.26 0.30 0.34 0.40 0.44 0.49 0.49 0.44 0.49 0.50 0.52 0.52 0.42 0.42 0.39 0.34 0.29 0.29 0.34 0.39 0.43 0.44 0.42 0.34 0.40 0.38 0.37 0.38 0.37 0.34 0.33 0.26 0.24 0.28 0.26 0.27 0.26 0.37 0.40 0.44 0.45 0.49 0.51 0.50 0.55 0.58 0.60 0.61 0.65 0.69 0.71 0.71 0.72 0.74
0.45 0.33 0.29 0.31 0.39 0.40 0.35 0.31 0.28 0.27 0.23 0.26 0.18 0.23 0.21 0.23 0.26 0.26 0.31 0.26 0.29 0.28 0.27 0.26 0.25 0.22 0.23 0.20 0.20 0.19 0.19 0.18 0.21 0.21 0.23 0.25 0.31 0.35 0.43 0.45 0.48 0.48 0.50 0.49 0.52 0.48 0.41 0.34 0.37 0.36 0.36 0.37 0.39 0.39 0.43 0.43 0.39 0.41 0.39 0.39 0.39 0.39 0.39 0.34 0.29 0.28 0.37 0.32 0.23 0.35 0.37 0.34 0.40 0.42 0.45 0.47 0.50 0.52 0.57 0.59 0.61 0.62 0.65 0.68 0.70 0.70 0.72 0.73
0.28 0.39 0.38 0.45 0.31 0.24 0.25 0.23 0.27 0.23 0.22 0.23 0.20 0.24 0.21 0.22 0.23 0.23 0.29 0.29 0.31 0.31 0.26 0.27 0.25 0.24 0.24 0.22 0.22 0.19 0.21 0.19 0.20 0.19 0.21 0.24 0.28 0.35 0.34 0.40 0.38 0.42 0.44 0.46 0.52 0.47 0.42 0.33 0.39 0.38 0.38 0.39 0.41 0.41 0.43 0.43 0.43 0.42 0.41 0.40 0.39 0.40 0.40 0.35 0.33 0.35 0.34 0.29 0.27 0.34 0.43 0.41 0.44 0.45 0.47 0.50 0.52 0.53 0.59 0.61 0.64 0.66 0.69 0.70 0.70 0.70 0.71 0.71
0.42 0.37 0.38 0.40 0.29 0.30 0.32 0.27 0.27 0.25 0.21 0.21 0.19 0.21 0.20 0.20 0.21 0.25 0.27 0.28 0.28 0.28 0.28 0.22 0.25 0.25 0.25 0.25 0.24 0.21 0.22 0.18 0.18 0.22 0.20 0.23 0.24 0.29 0.32 0.33 0.39 0.42 0.40 0.44 0.47 0.51 0.41 0.37 0.39 0.40 0.38 0.38 0.40 0.41 0.43 0.40 0.41 0.43 0.42 0.42 0.43 0.41 0.40 0.40 0.38 0.38 0.37 0.36 0.39 0.43 0.43 0.41 0.44 0.46 0.51 0.53 0.57 0.57 0.60 0.65 0.66 0.65 0.65 0.67 0.69 0.68 0.68 0.69
0.33 0.32 0.30 0.35 0.34 0.29 0.27 0.25 0.24 0.22 0.20 0.19 0.17 0.19 0.19 0.20 0.21 0.23 0.25 0.25 0.22 0.25 0.29 0.26 0.24 0.26 0.26 0.26 0.26 0.23 0.25 0.24 0.24 0.21 0.26 0.23 0.26 0.28 0.30 0.32 0.34 0.38 0.37 0.37 0.42 0.52 0.37 0.34 0.39 0.41 0.36 0.35 0.38 0.40 0.42 0.42 0.42 0.40 0.44 0.44 0.45 0.44 0.44 0.43 0.41 0.41 0.41 0.42 0.42 0.43 0.40 0.39 0.48 0.54 0.55 0.59 0.60 0.61 0.62 0.61 0.63 0.65 0.67 0.68 0.69 0.69 0.69 0.68
0.46 0.46 0.42 0.29 0.24 0.27 0.24 0.22 0.21 0.19 0.16 0.16 0.16 0.18 0.21 0.20 0.20 0.21 0.21 0.25 0.24 0.23 0.25 0.24 0.25 0.27 0.27 0.27 0.27 0.27 0.28 0.28 0.28 0.27 0.28 0.27 0.23 0.30 0.26 0.33 0.33 0.30 0.34 0.35 0.39 0.43 0.38 0.36 0.41 0.40 0.33 0.32 0.36 0.36 0.38 0.41 0.41 0.40 0.41 0.43 0.43 0.44 0.40 0.42 0.39 0.44 0.40 0.38 0.41 0.41 0.37 0.37 0.48 0.55 0.58 0.59 0.60 0.59 0.58 0.60 0.61 0.63 0.67 0.69 0.68 0.70 0.71 0.72
0.48 0.49 0.45 0.37 0.24 0.25 0.23 0.22 0.21 0.18 0.14 0.16 0.19 0.19 0.21 0.21 0.21 0.22 0.19 0.23 0.24 0.25 0.25 0.24 0.25 0.25 0.25 0.25 0.27 0.28 0.31 0.31 0.31 0.31 0.31 0.32 0.32 0.31 0.31 0.30 0.33 0.30 0.31 0.33 0.40 0.39 0.39 0.38 0.33 0.34 0.28 0.29 0.36 0.37 0.35 0.38 0.39 0.34 0.35 0.42 0.45 0.47 0.49 0.50 0.49 0.50 0.47 0.48 0.40 0.36 0.39 0.47 0.52 0.56 0.54 0.56 0.58 0.58 0.60 0.59 0.60 0.63 0.66 0.68 0.69 0.70 0.72 0.74
Wind_Speed
18 18 18 18 18 18 18 18 18 18 18 18 18 18 18 18 18 18 18 18 18 18 18 18 18 18 18 18 18 18 18 18 18 17 17 16 16 16 16 16 16 16 15 15 15 15 14 14 14 14 14 14 14 14 14 14 13 13 13 14 14 14 14 13 13 13 14 14 14 15 14 15 15 13 12 12 12 12 13 13 13 13 12 11 11 12 14 14
17 17 17 17 17 17 17 17 17 17 17 18 18 18 18 18 18 18 18 18 18 18 18 18 18 18 17 17 17 17 17 17 17 17 16 16 15 16 17 17 17 16 15 15 16 16 15 15 14 15 14 14 14 13 14 14 14 14 14 14 15 14 13 13 14 14 14 15 15 15 14 14 14 13 12 12 12 12 13 13 13 13 12 11 12 13 13 13
17 17 17 17 17 17 17 17 17 17 17 17 17 17 17 17 17 17 17 17 17 17 17 17 18 17 17 17 17 16 16 17 16 15 15 15 15 16 17 17 17 17 16 16 16 16 15 15 15 15 15 14 14 14 15 14 14 15 14 15 14 13 13 13 14 14 15 15 15 15 14 14 13 12 12 12 12 12 12 12 13 14 13 13 13 13 14 13
16 16 16 16 16 17 16 17 17 17 17 17 17 17 17 16 16 16 16 16 17 17 17 17 17 17 17 16 16 16 16 17 16 14 14 15 15 16 16 16 17 17 16 16 16 16 15 15 15 15 15 15 14 15 15 14 14 14 15 15 13 13 14 14 14 15 15 15 15 15 15 14 13 13 13 12 12 10 11 12 13 14 14 15 14 14 14 13
16 16 16 16 16 16 16 16 16 16 17 17 17 17 17 16 16 16 16 16 16 16 16 16 16 16 16 16 16 16 16 15 14 14 14 14 15 15 16 16 17 17 16 16 16 15 15 15 16 15 15 15 14 15 16 15 15 14 16 16 14 14 15 14 15 16 16 16 16 16 15 14 14 14 13 12 13 11 11 12 13 14 15 16 15 15 15 14
16 16 16 16 16 16 16 16 16 16 16 16 17 16 16 16 16 16 16 16 16 16 16 15 15 15 15 16 16 15 16 15 14 15 15 14 14 14 15 16 17 16 16 16 15 15 16 16 16 16 16 15 15 15 15 15 16 16 16 16 16 16 16 16 16 17 16 17 16 16 15 14 14 14 13 13 14 13 12 13 14 14 15 15 15 16 15 15
16 16 16 16 15 15 15 15 16 16 16 16 16 16 16 16 16 16 16 16 16 16 16 15 15 15 15 15 15 16 17 15 14 15 15 15 14 14 15 15 16 16 16 16 16 16 16 17 17 16 16 15 15 15 15 16 16 16 15 15 16 17 17 17 17 17 17 17 17 16 16 15 15 14 13 14 14 12 12 13 14 14 14 15 16 16 16 15
16 16 16 15 15 15 15 15 15 15 16 16 16 16 16 15 16 16 16 16 16 16 16 15 15 15 15 15 15 16 17 15 15 15 15 15 15 14 15 15 16 16 17 17 16 17 16 17 17 16 16 15 15 15 15 16 16 18 17 16 16 16 17 17 17 17 17 18 17 17 16 16 16 14 14 15 13 11 11 12 13 13 14 15 15 16 15 15
16 16 16 16 15 15 15 15 15 15 15 15 16 15 15 15 15 16 16 16 16 16 16 15 15 15 15 15 16 16 15 14 14 15 15 15 15 15 15 15 16 16 16 17 16 17 17 17 17 16 15 14 15 15 15 16 15 16 18 17 17 17 17 17 17 17 17 17 17 17 17 16 15 14 15 14 11 10 11 12 13 13 14 14 15 16 15 14
17 16 16 16 15 15 15 15 15 15 15 16 16 15 15 15 16 16 16 16 16 16 16 15 15 15 15 15 16 16 14 14 14 14 15 15 15 15 15 15 15 16 16 16 17 17 16 16 16 15 15 15 15 15 15 16 14 14 16 16 17 17 16 16 17 17 17 17 17 18 18 17 15 15 14 12 10 11 12 12 13 14 14 15 15 15 15 14
17 16 16 16 16 16 15 16 16 16 16 16 16 16 15 16 16 16 16 16 16 16 16 16 15 15 16 16 17 16 15 15 15 14 15 16 15 15 15 15 15 16 16 16 17 17 16 16 15 15 15 14 15 15 16 16 14 14 15 16 17 17 16 16 16 16 16 16 16 17 18 18 17 17 17 13 11 12 13 13 13 14 14 15 16 15 14 14
17 17 17 16 16 16 16 16 16 16 16 16 16 16 16 16 17 17 17 17 16 16 16 16 15 15 16 17 18 16 15 16 15 15 15 16 16 15 15 15 15 16 16 16 16 17 17 16 16 16 14 13 14 14 14 15 14 15 15 15 15 16 16 16 15 15 15 15 15 16 17 18 19 19 18 15 14 14 14 14 14 14 14 15 16 15 14 15
17 17 17 17 16 16 16 16 16 16 16 16 16 16 17 17 17 18 17 17 17 16 16 16 15 15 16 16 16 16 15 15 15 16 16 16 16 15 16 16 16 16 16 16 15 16 17 16 17 17 15 15 14 12 12 13 14 14 14 15 14 15 15 14 13 14 14 14 14 15 16 16 17 19 17 15 15 16 16 15 15 15 15 15 16 15 15 15
18 18 17 17 17 16 16 16 17 16 16 16 16 17 17 17 18 18 18 18 17 17 16 16 16 16 16 16 15 16 16 16 16 17 17 17 16 16 16 16 16 16 16 15 15 16 16 16 17 17 16 16 14 13 13 13 14 13 13 14 14 14 12 11 12 12 13 12 13 15 16 14 14 15 16 15 16 17 17 17 16 16 16 16 16 15 15 16
18 18 18 17 17 17 17 17 17 16 16 16 17 17 17 17 17 17 17 17 17 17 16 16 16 16 16 17 16 15 16 17 18 18 18 18 17 17 17 17 16 16 16 15 15 15 16 16 17 16 16 16 15 15 14 13 13 13 13 13 13 13 12 11 12 12 12 12 13 15 15 15 14 13 14 15 16 17 18 18 17 17 17 17 16 16 16 16
18 18 18 17 17 17 17 17 17 16 16 16 17 17 17 17 16 16 16 16 16 16 16 16 16 16 17 16 15 15 16 16 17 17 18 19 18 17 16 16 16 16 16 15 15 15 16 17 17 16 17 16 16 15 15 14 14 14 15 14 12 13 12 12 13 13 13 13 14 15 15 15 14 13 14 15 17 18 18 19 18 18 18 18 17 16 16 17
18 18 18 17 17 17 17 17 17 16 16 16 16 16 16 16 15 15 15 15 16 16 16 16 16 17 17 16 15 15 15 15 15 15 16 18 19 18 16 16 16 16 15 15 15 15 16 17 16 17 17 17 17 16 16 16 16 15 15 15 14 14 13 12 12 12 13 14 15 16 17 17 15 15 15 16 17 18 19 19 19 19 19 19 18 17 17 18
18 18 18 17 17 17 17 17 17 16 16 16 16 16 16 16 15 15 15 14 14 15 15 16 16 17 16 16 17 16 14 14 15 15 16 16 18 18 17 16 15 16 15 15 15 15 16 17 16 17 18 18 18 17 17 16 15 15 15 15 15 15 15 14 13 13 13 15 16 17 18 19 19 18 17 17 18 18 19 19 20 20 21 21 20 19 18 18
18 18 17 17 17 17 17 17 17 16 16 16 15 15 15 15 15 15 14 14 14 14 14 14 15 15 14 14 15 16 16 16 16 16 16 15 16 17 16 16 16 16 16 15 16 16 16 16 17 17 18 19 19 19 19 16 14 15 14 15 15 14 15 15 14 14 15 16 17 18 19 19 19 19 18 17 18 19 19 20 20 21 21 22 22 21 20 20
18 18 17 17 17 17 17 17 17 16 16 15 14 15 14 14 14 13 13 14 16 16 15 15 16 16 15 15 15 15 16 16 16 16 16 16 16 16 16 16 16 17 17 16 15 16 17 17 17 18 18 19 20 20 19 17 16 16 16 16 16 16 16 14 15 15 16 16 17 18 19 20 20 20 19 18 18 20 21 21 21 21 21 22 22 23 22 21
17 17 17 17 17 17 17 17 17 16 16 15 14 15 14 13 13 12 13 15 16 16 17 16 16 17 17 16 15 15 15 15 16 15 16 16 17 17 17 17 17 17 17 15 14 15 17 17 18 18 18 18 18 19 19 18 18 18 18 17 17 17 16 15 15 16 16 16 17 17 18 20 20 20 20 20 19 20 21 22 22 22 22 22 22 23 23 22
17 17 17 17 17 17 17 17 17 16 15 15 15 15 13 12 12 12 13 14 15 15 16 16 16 17 18 18 17 16 16 17 17 16 16 17 18 17 17 18 18 16 16 16 15 15 17 18 18 17 16 17 17 19 19 19 19 18 18 18 17 16 16 15 15 16 15 16 16 17 19 19 20 20 21 21 21 21 21 22 22 23 23 23 23 22 23 22
17 17 16 16 16 17 17 17 17 16 15 15 15 14 13 12 13 13 13 14 15 14 14 15 16 16 16 17 17 18 19 19 19 19 17 17 18 18 17 18 18 16 16 17 16 15 15 16 17 17 17 18 18 18 19 18 18 18 18 17 17 16 15 15 14 15 16 17 18 19 20 20 20 20 21 22 22 21 21 22 22 23 24 24 23 23 23 23
17 17 16 16 16 17 17 17 17 16 15 15 15 14 13 13 12 12 13 14 14 13 13 13 14 14 14 14 15 17 18 18 19 19 19 19 18 17 18 18 18 17 17 18 18 17 15 13 14 16 17 18 18 18 19 18 18 19 19 19 17 16 16 17 17 16 18 19 20 19 19 20 19 20 20 20 21 21 21 21 22 23 23 24 24 24 23 23
16 16 16 16 16 16 17 17 16 15 15 15 15 14 13 13 12 12 13 13 13 13 12 12 12 12 12 12 13 15 16 17 18 18 19 20 18 17 17 18 17 17 17 18 17 17 16 13 14 16 17 18 19 18 19 19 18 18 18 19 19 18 18 19 19 17 18 18 17 17 17 16 15 16 17 16 17 20 20 21 21 22 22 23 24 24 24 24
16 16 15 16 16 16 16 15 14 14 14 14 13 13 13 13 12 12 12 12 12 12 12 13 12 11 12 12 12 13 14 15 17 17 18 20 20 17 16 17 17 17 16 16 16 16 16 14 15 16 16 17 18 18 18 18 18 17 15 16 18 18 18 18 17 16 16 14 13 15 16 15 13 14 14 14 15 17 18 18 19 19 20 21 23 23 24 24
16 15 15 16 15 15 14 14 14 14 13 13 12 13 13 12 12 11 12 12 11 11 12 12 11 11 11 11 13 13 12 12 14 17 18 19 20 18 17 17 16 16 14 14 14 15 15 16 16 16 16 16 17 16 16 16 17 15 13 14 16 16 16 16 16 16 15 13 13 15 16 16 16 15 13 14 14 16 16 16 15 16 17 19 20 22 24 23
15 15 15 15 15 15 14 14 14 14 13 12 12 13 12 12 12 11 12 11 10 11 11 11 11 12 10 11 13 14 12 11 13 15 18 19 19 18 18 17 17 16 15 15 14 12 14 16 16 17 17 16 17 16 16 17 17 15 12 13 14 14 15 15 15 15 15 14 15 16 15 15 16 14 13 14 15 15 15 14 13 14 15 16 18 21 23 23
15 15 15 15 15 14 14 14 14 13 13 12 12 12 12 12 12 12 12 12 10 10 11 10 11 12 11 11 13 15 14 13 12 13 16 19 19 17 17 17 17 16 16 17 15 12 12 14 14 16 16 15 16 17 17 17 17 14 14 15 15 14 14 14 15 14 13 14 16 15 14 15 15 14 13 13 14 14 13 12 12 12 13 15 16 19 21 22
14 14 14 14 14 13 13 13 14 14 13 12 12 12 12 12 12 12 12 11 10 10 10 11 11 11 11 11 12 13 14 13 11 12 15 18 19 18 16 15 16 15 15 17 17 13 11 12 13 14 15 14 13 14 15 17 16 14 14 15 14 14 13 13 14 13 13 15 16 15 14 14 14 14 13 11 12 12 12 12 12 12 13 13 15 17 19 21
14 14 14 14 13 12 12 12 12 13 12 12 12 12 12 12 12 12 11 10 10 10 10 11 10 10 11 10 10 12 13 13 11 12 14 16 18 18 16 15 16 15 15 16 16 15 14 14 14 14 15 14 13 13 14 15 15 14 14 14 13 13 13 13 13 13 14 14 12 12 13 14 14 13 11 10 10 11 12 13 12 12 12 12 13 14 16 19
14 14 14 14 14 13 13 12 11 12 12 12 12 12 12 12 12 12 10 10 11 10 10 10 10 10 10 10 10 11 12 13 13 13 13 15 16 17 18 16 15 16 15 15 16 15 16 17 16 16 16 15 15 14 14 14 15 15 14 14 14 13 12 13 13 12 14 12 9 9 11 13 14 12 10 11 11 11 12 12 11 11 12 12 12 14 15 17
13 14 14 14 14 14 14 13 13 13 13 13 13 13 13 12 12 11 11 10 10 9 9 11 11 10 10 10 10 10 11 12 14 14 13 15 15 16 18 17 17 17 14 14 15 14 15 16 17 17 16 16 17 15 14 14 15 16 15 14 15 13 12 13 13 12 13 11 9 10 11 13 14 11 9 11 11 11 12 12 11 11 11 11 12 14 15 16
13 13 13 13 13 13 14 13 13 14 13 13 14 13 13 13 11 10 11 11 10 10 10 10 11 11 10 10 9 10 10 11 13 13 13 14 15 15 16 17 18 17 14 13 14 14 14 14 15 17 15 16 18 17 15 13 14 16 16 15 15 14 13 12 11 11 12 10 9 10 11 12 12 9 8 9 9 10 12 11 11 11 10 10 11 13 15 16
12 12 11 11 11 12 13 13 13 13 13 13 14 13 13 13 11 10 11 10 11 11 11 10 11 12 11 9 9 10 10 10 12 13 12 13 14 14 15 16 18 18 15 14 13 13 15 13 12 14 13 14 17 18 17 15 14 14 15 15 15 14 13 12 10 9 10 10 9 9 10 11 10 9 9 9 9 9 10 10 10 10 9 8 10 11 13 15
10 10 10 10 10 10 11 13 13 13 13 13 13 13 13 11 10 10 10 10 11 11 11 11 12 12 11 10 9 9 10 11 12 13 13 13 13 13 14 14 16 18 16 14 12 12 14 12 11 13 13 14 15 15 17 17 14 13 14 16 14 13 14 13 11 10 10 12 11 10 11 11 10 9 9 9 10 9 8 10 10 9 8 8 8 9 11 13
10 10 9 9 9 9 10 12 12 12 13 13 13 13 12 11 10 10 10 10 11 10 11 11 11 11 11 11 9 9 10 11 13 13 13 13 12 12 13 13 13 16 17 14 13 13 13 11 11 13 13 14 13 13 15 18 16 13 13 13 12 12 14 14 12 11 11 13 11 10 11 11 10 9 8 8 9 8 8 9 9 9 8 8 9 9 10 12
10 10 9 9 8 8 9 10 11 11 12 12 12 12 11 11 11 11 10 10 11 11 11 11 10 10 11 11 9 8 10 11 13 13 13 14 13 11 13 13 12 14 15 15 14 13 13 12 12 13 13 12 13 13 14 16 18 16 13 11 11 12 13 13 13 12 12 12 11 11 11 11 11 9 7 7 7 7 8 9 9 8 8 8 8 9 9 11
10 10 10 8 9 9 9 9 10 11 11 12 11 11 11 11 10 11 10 11 11 11 11 10 10 10 10 10 10 9 9 10 12 13 13 13 13 12 12 12 12 13 14 15 15 13 13 13 12 13 14 12 13 15 15 15 17 17 16 14 13 12 12 12 12 12 12 12 11 11 10 9 8 7 6 6 7 7 8 9 9 8 7 8 8 8 8 9
10 10 9 8 9 9 9 9 10 10 10 10 10 10 10 10 10 10 10 10 10 10 10 9 10 10 10 10 10 9 9 10 11 13 13 12 13 13 12 12 12 13 13 15 15 14 13 14 13 12 13 13 13 14 14 13 14 15 16 17 16 14 13 12 12 12 12 12 10 10 9 7 5 6 6 6 6 7 8 8 9 9 8 8 8 9 9 9
10 9 8 9 9 9 8 9 9 9 9 9 9 9 9 9 9 9 8 9 10 9 9 9 10 10 9 10 10 9 9 10 10 11 12 12 12 12 12 13 14 13 13 13 14 14 14 14 15 13 13 14 13 11 12 12 13 14 15 16 16 15 14 14 14 13 13 13 11 10 9 7 5 6 6 5 5 5 6 7 9 9 8 9 9 9 9 10
10 9 8 9 9 8 9 8 8 8 8 8 8 8 8 8 8 8 8 9 9 9 9 10 10 10 9 10 10 9 10 10 10 11 11 11 11 11 11 12 14 14 13 13 13 14 13 13 16 16 15 14 12 11 13 13 13 14 14 14 15 15 15 15 13 12 13 14 12 12 11 8 6 7 6 5 5 5 5 7 8 8 9 9 9 9 10 10
10 8 8 9 9 8 8 8 7 8 7 7 7 7 7 8 8 8 8 8 8 8 9 9 9 9 9 9 10 10 10 10 10 10 10 10 11 11 10 11 13 14 14 13 12 12 13 13 15 16 16 16 15 14 15 14 14 15 14 14 15 15 15 15 14 12 12 13 12 13 12 9 8 8 7 6 5 5 6 6 7 8 8 9 9 10 10 10
9 8 8 9 9 8 8 7 7 7 7 7 7 7 7 7 7 7 7 7 7 8 8 9 9 9 9 10 11 11 10 11 11 10 10 11 11 11 11 11 12 12 12 12 12 12 13 13 13 14 14 16 16 15 15 16 16 15 14 13 14 15 15 16 15 14 15 14 13 13 11 8 7 7 6 5 5 5 6 6 7 8 8 9 10 10 10 11
9 8 8 9 8 8 7 6 6 7 7 7 6 6 6 6 5 6 6 6 6 7 8 8 8 9 10 11 12 12 11 12 11 11 11 11 11 12 12 11 11 12 11 11 12 13 13 13 13 13 13 15 15 14 13 14 15 15 14 13 13 14 16 16 15 15 16 15 15 15 12 8 8 8 7 6 5 5 5 6 7 7 8 9 10 10 10 11
9 8 8 9 8 7 6 6 6 7 7 6 6 5 6 6 5 5 5 5 5 6 6 7 8 10 10 11 12 12 12 13 13 12 12 12 12 12 12 12 11 11 11 11 12 13 13 13 14 14 13 13 13 12 12 13 14 13 13 13 13 13 15 16 15 14 14 14 15 15 13 11 10 10 8 7 6 6 6 6 6 6 7 8 8 9 9 10
9 8 8 8 8 7 7 7 7 6 6 6 5 4 4 5 5 5 5 5 5 5 6 6 7 8 9 10 11 11 12 13 13 13 13 13 13 12 12 13 12 11 11 12 12 13 14 14 15 15 14 12 11 11 12 14 14 13 12 13 13 13 14 16 15 13 13 14 13 12 12 11 10 9 9 8 7 7 6 6 6 6 6 7 7 7 8 8
8 8 8 7 7 7 7 7 7 6 6 5 5 4 3 4 4 5 5 5 5 5 6 6 6 7 8 9 10 10 11 12 12 13 13 13 13 13 13 13 13 11 12 13 12 12 12 13 13 14 14 12 11 11 10 11 12 13 12 13 13 13 13 15 15 13 13 13 12 10 9 8 8 8 8 8 7 7 5 6 6 6 6 6 6 6 7 7
8 8 8 7 7 7 7 7 7 6 5 4 4 3 3 2 3 4 4 5 5 5 6 6 6 7 7 8 9 10 10 11 10 11 12 13 13 14 14 14 13 12 12 13 13 12 12 12 12 13 13 12 11 11 10 9 9 10 11 12 13 13 13 13 14 13 13 13 11 9 7 7 8 9 8 8 7 6 6 6 6 6 5 6 5 6 6 7
9 8 8 8 8 7 7 7 6 6 5 4 3 3 2 2 2 3 4 4 5 5 6 6 6 7 7 8 9 9 8 9 10 10 11 12 12 13 14 14 14 13 13 13 13 13 13 13 12 13 13 12 11 11 11 10 8 8 9 10 11 12 12 12 13 13 13 12 11 10 10 9 9 9 8 8 7 6 5 5 5 5 5 5 5 5 5 5
9 8 9 9 8 7 7 6 5 5 4 4 3 3 3 2 1 2 3 3 4 5 5 6 7 8 8 9 9 8 8 9 10 10 11 11 11 11 13 13 14 14 14 14 13 13 13 13 13 13 13 12 12 12 11 11 10 9 8 8 10 12 12 12 12 12 12 12 12 12 11 11 10 10 9 7 7 6 4 4 5 6 5 5 4 4 4 3
9 9 9 9 7 7 6 6 5 5 4 3 2 2 2 2 2 3 3 3 4 4 4 6 7 7 8 9 9 8 8 9 10 11 11 12 12 12 12 13 14 15 15 14 14 13 13 13 13 13 13 12 12 13 12 12 12 10 8 9 11 12 12 12 12 11 11 12 12 12 11 10 11 11 9 8 7 6 4 5 6 6 5 5 4 4 3 3
Wind_Direction
255 255 256 256 257 258 258 259 259 259 259 260 260 260 261 261 261 262 262 262 263 263 264 265 265 265 265 265 266 266 265 264 259 252 247 247 248 244 245 245 240 237 236 234 232 231 231 233 234 235 238 241 246 247 244 249 250 250 253 254 255 255 257 257 256 259 262 267 270 273 277 279 282 282 280 268 255 249 242 237 233 232 235 237 230 216 211 214
254 254 255 255 256 256 257 258 259 259 259 260 260 260 261 261 261 262 262 262 263 263 264 265 265 266 266 266 266 266 265 261 253 248 244 246 248 244 244 242 235 234 234 232 231 230 231 233 232 234 239 242 245 245 244 247 247 250 254 254 255 258 260 259 258 260 262 267 270 271 275 277 279 279 276 270 264 253 239 231 228 228 228 227 222 215 215 215
253 254 254 255 255 255 256 257 258 258 259 260 260 260 260 260 261 261 262 262 263 263 264 264 265 266 266 265 265 265 263 256 248 244 243 247 248 244 242 237 231 231 234 235 233 234 236 234 232 235 241 244 246 245 245 246 246 251 253 254 257 258 259 257 256 259 262 266 268 269 272 273 275 275 270 268 265 250 237 234 230 228 225 223 219 216 215 215
253 254 254 255 255 256 256 257 257 258 259 259 259 260 260 260 260 261 262 262 262 263 263 264 265 265 265 264 264 263 260 252 245 242 245 251 249 242 237 232 228 230 235 237 235 237 239 235 232 237 242 245 246 245 245 244 246 251 251 255 259 257 257 254 254 260 263 265 266 268 270 270 272 270 264 262 258 243 237 238 236 232 225 221 218 216 217 214
252 253 255 255 255 256 256 257 257 258 259 259 259 259 259 260 260 261 261 262 262 263 263 264 264 265 264 263 262 260 256 249 242 243 249 252 247 238 234 230 227 229 234 234 233 236 236 232 232 237 243 245 245 245 246 243 247 254 251 254 257 256 257 255 257 262 263 264 264 265 268 270 269 265 260 257 253 248 246 242 240 237 226 222 218 216 218 215
251 253 254 255 256 256 257 257 258 258 259 259 259 259 259 259 260 261 261 261 262 262 262 263 264 264 263 263 260 254 251 248 244 247 249 248 242 234 232 228 226 230 232 230 231 233 231 230 233 238 243 246 244 245 248 243 247 255 253 252 254 256 258 259 261 263 263 263 262 263 266 267 264 260 258 255 253 254 252 244 243 237 224 221 217 216 218 216
251 252 253 254 255 256 257 258 258 258 259 259 259 259 259 260 260 261 261 261 261 262 262 262 263 263 263 262 256 250 249 248 247 249 249 244 238 233 230 226 227 231 230 230 230 231 231 230 235 239 244 247 245 245 247 244 246 252 254 254 255 257 258 260 262 262 262 263 262 261 261 262 260 258 257 256 254 252 250 244 239 229 219 218 217 216 218 217
249 251 252 253 254 255 257 258 258 258 258 258 258 258 259 260 261 261 261 261 261 261 261 262 262 262 262 259 254 251 247 246 247 250 246 239 235 231 228 226 229 233 232 232 232 232 232 233 236 241 245 248 247 245 245 246 248 250 254 256 257 258 258 259 260 260 261 260 260 258 257 259 257 256 256 254 252 247 243 237 228 220 215 216 216 216 218 219
248 250 251 252 253 254 256 257 258 258 258 258 258 259 260 261 261 261 261 261 260 260 260 260 260 260 259 255 254 253 246 245 248 248 241 234 232 227 226 228 231 233 233 234 235 234 234 236 237 241 249 250 247 246 244 248 252 250 252 256 258 259 260 259 258 259 260 257 257 256 255 257 255 252 250 246 244 241 235 228 220 216 214 215 215 216 217 218
248 249 251 252 253 255 256 257 257 258 258 258 259 259 260 261 262 262 261 261 259 259 258 258 258 257 255 252 252 251 245 245 247 244 237 231 228 225 229 231 230 232 233 234 236 235 237 242 241 245 253 251 247 248 244 248 257 255 254 257 258 259 259 259 258 259 259 257 255 253 254 255 250 244 241 238 236 235 229 222 218 215 214 215 216 217 219 220
248 249 251 253 254 256 257 258 258 258 259 259 259 260 261 261 262 262 261 261 259 258 257 256 256 254 253 251 251 250 246 245 244 240 235 228 225 227 231 232 230 234 235 235 237 237 241 245 242 244 251 249 246 248 246 250 258 257 256 257 257 257 257 256 257 258 257 255 253 252 254 254 247 240 240 241 237 233 228 222 218 216 215 217 217 218 222 223
248 250 252 254 255 257 258 259 259 260 260 259 260 261 262 262 262 263 262 261 259 257 256 255 254 253 252 250 249 249 246 243 241 237 233 228 226 230 232 232 232 236 238 239 239 239 241 243 240 243 250 248 244 248 249 250 255 255 255 258 257 257 257 253 254 257 254 254 252 252 253 249 242 237 239 240 235 232 229 223 220 220 219 219 219 220 223 224
249 250 252 255 256 258 260 261 261 261 261 261 261 262 263 264 263 262 261 259 257 255 254 253 252 252 252 250 248 246 243 241 239 235 233 231 230 232 234 234 235 238 241 242 241 240 241 241 240 244 249 246 243 251 253 249 252 255 253 256 258 257 254 247 250 255 251 251 250 248 248 244 236 234 238 238 233 232 229 225 224 224 223 222 220 221 224 225
249 250 253 255 257 259 261 261 262 263 263 263 264 264 265 265 264 262 259 256 254 252 251 250 251 251 250 249 249 246 243 243 241 236 234 233 233 234 235 235 237 238 240 242 243 242 240 240 242 245 246 246 247 249 250 249 251 253 253 253 253 254 249 241 247 251 248 248 245 242 244 243 236 232 237 238 234 232 231 227 226 227 227 226 224 224 226 226
249 251 253 255 257 259 261 262 263 264 264 265 266 268 267 265 264 262 258 254 251 249 248 248 249 249 249 249 248 247 243 243 242 237 235 234 234 236 236 235 237 238 239 241 243 243 241 238 241 242 241 245 248 246 247 249 249 249 253 252 246 248 248 242 245 249 250 249 243 242 244 244 239 236 238 238 236 235 234 231 228 229 229 229 229 227 228 229
249 251 253 256 257 259 261 262 263 264 265 266 268 269 267 265 264 261 256 252 249 246 245 246 246 247 251 249 245 244 240 240 240 236 234 234 236 238 236 234 236 237 239 240 242 244 240 236 241 244 242 243 245 246 248 250 249 247 250 253 247 246 250 248 244 245 250 250 244 243 247 246 242 240 241 239 238 237 236 234 231 230 231 231 231 230 230 229
250 251 254 256 257 259 261 262 263 264 266 268 270 268 266 265 263 259 255 251 249 246 246 247 246 247 249 246 244 242 237 236 237 234 234 235 236 236 234 234 236 237 238 239 242 243 238 238 243 246 244 243 243 245 248 249 249 246 246 251 251 250 253 252 244 244 248 250 248 246 248 250 249 247 244 241 240 238 238 236 233 232 233 233 232 232 232 230
250 251 253 256 258 259 261 262 263 264 266 268 268 265 264 264 261 259 255 250 247 245 246 245 243 246 245 243 243 240 236 236 236 235 237 236 234 233 233 236 235 235 238 240 242 242 240 241 243 245 244 242 242 242 244 251 254 248 246 250 252 249 250 251 249 249 251 252 251 250 249 250 251 250 246 242 241 240 239 239 236 234 235 235 235 233 233 232
250 251 254 256 258 260 261 262 263 264 267 268 265 262 261 261 259 255 251 247 243 243 246 240 238 245 244 241 241 239 239 240 239 238 237 235 232 230 233 235 233 234 238 241 242 241 242 244 243 244 243 240 240 240 244 255 259 253 251 253 254 251 250 251 251 254 257 257 255 253 253 252 251 250 247 243 241 241 242 241 239 237 236 237 237 235 235 234
250 251 254 256 258 260 261 262 263 264 267 266 262 259 258 258 255 249 247 248 245 247 252 244 241 246 245 241 240 240 240 238 239 238 235 234 228 226 230 232 233 236 240 242 242 241 243 244 243 243 244 242 240 240 247 255 255 254 255 255 254 254 255 252 250 254 258 259 258 254 255 255 253 252 249 246 242 242 243 242 240 239 239 238 238 236 235 233
250 252 254 256 258 260 261 263 263 264 265 262 259 257 257 259 255 252 254 252 246 247 250 247 246 246 244 242 241 241 239 237 238 236 234 233 227 227 229 228 233 238 239 240 242 243 244 245 244 244 246 245 240 240 246 250 251 253 254 255 254 253 256 254 253 257 257 257 258 256 256 256 255 253 250 247 245 243 244 243 242 240 240 239 238 237 235 232
250 252 255 257 259 261 262 263 263 264 262 256 255 255 255 256 254 256 257 254 251 249 248 247 245 245 243 242 240 241 242 241 238 235 233 231 227 230 229 228 235 238 237 239 242 244 244 246 245 243 244 243 241 242 244 247 249 251 251 253 253 253 257 256 254 254 252 255 259 260 260 259 258 255 251 249 247 246 246 245 244 241 241 241 239 236 235 232
250 252 255 257 259 261 263 264 264 261 256 253 253 251 251 252 253 255 253 254 254 247 244 243 243 244 243 242 240 238 240 241 239 234 230 229 229 231 230 229 234 237 237 239 242 244 246 247 244 241 242 242 242 242 242 245 247 246 247 249 249 251 254 253 251 249 250 258 263 264 263 262 260 256 252 249 248 247 246 246 245 242 241 241 239 237 234 232
250 252 255 258 260 262 264 264 262 256 252 253 252 247 249 252 255 256 252 253 251 243 242 241 242 244 243 243 239 234 236 239 238 233 226 227 230 231 231 230 233 238 239 239 240 244 249 250 245 242 241 240 241 240 241 244 246 245 244 246 249 252 254 255 256 258 260 260 258 260 263 261 258 254 251 247 245 246 246 245 244 243 242 241 239 238 235 233
250 252 255 258 260 263 265 263 256 251 252 253 248 244 248 252 255 253 250 251 246 238 237 235 237 241 240 243 238 234 238 238 237 233 226 226 228 229 231 232 234 239 240 237 239 246 250 247 244 244 241 239 240 241 240 242 247 247 243 243 249 253 255 258 258 259 263 259 249 252 261 261 255 251 249 244 242 244 242 242 243 242 242 241 239 238 235 233
249 252 255 257 261 264 261 255 249 250 251 248 242 241 247 252 252 250 249 249 242 235 235 234 236 237 239 241 237 235 239 236 235 233 227 227 228 229 232 232 236 242 239 236 242 249 248 243 243 244 241 238 239 242 240 239 245 248 243 242 246 250 254 256 254 252 258 261 248 248 259 261 256 250 243 242 243 242 239 240 243 243 243 241 240 238 235 232
250 252 256 257 260 261 255 248 248 249 247 241 238 241 247 250 247 245 247 244 239 237 237 236 236 237 242 242 234 235 239 235 231 228 226 226 225 229 234 231 233 240 237 236 246 248 244 242 242 240 239 239 239 240 237 234 240 245 242 242 244 247 251 252 251 249 255 263 254 248 254 259 259 251 240 240 245 242 238 238 241 243 245 244 242 239 235 231
251 253 256 256 258 257 251 249 248 246 242 238 238 242 247 246 241 241 244 241 237 238 237 235 236 237 243 242 234 237 243 240 234 227 224 224 224 227 233 232 232 233 231 235 246 246 240 241 239 235 237 240 240 240 236 232 238 242 240 241 245 249 252 251 250 249 254 260 255 247 247 254 257 249 239 240 243 241 236 237 241 244 247 249 245 240 234 229
252 254 255 256 257 253 248 245 243 240 239 237 239 244 245 241 238 238 242 241 237 237 238 237 235 236 243 242 235 238 240 240 240 231 222 222 225 228 232 234 234 232 230 236 246 247 242 243 241 234 236 239 240 240 236 232 236 241 239 241 246 249 251 250 249 250 250 254 256 247 239 249 255 247 239 240 242 240 237 239 244 247 252 253 246 239 232 226
254 254 254 255 254 248 243 241 239 237 236 237 240 244 240 236 237 236 236 238 237 236 238 237 236 242 250 245 235 234 234 235 236 226 221 220 222 227 232 233 233 233 233 237 245 246 241 243 242 236 236 239 241 238 234 233 235 238 238 239 241 243 245 246 246 248 248 250 254 247 237 246 255 250 244 242 241 243 245 246 249 253 260 258 245 235 226 221
254 253 252 251 247 242 240 237 234 233 232 236 239 238 234 233 237 237 234 235 238 237 235 235 238 246 252 247 238 232 229 230 227 221 220 219 219 222 226 227 229 232 235 238 241 241 236 238 239 236 235 237 240 235 230 230 231 233 235 236 238 238 239 242 240 240 247 251 250 244 238 243 251 253 248 240 240 246 250 251 253 258 264 259 242 229 220 216
254 252 251 248 243 239 238 235 232 231 232 236 237 232 231 233 235 236 233 233 238 239 235 236 243 249 250 243 240 235 229 227 224 221 221 217 218 220 221 224 224 226 234 235 235 236 237 238 236 235 234 232 235 233 225 226 228 230 232 232 236 235 233 237 236 236 245 248 241 238 241 245 252 255 250 244 248 252 252 251 253 258 262 255 237 224 219 215
254 253 251 246 240 237 236 236 235 234 233 234 233 230 233 237 236 235 234 233 236 239 238 240 247 252 248 241 238 234 230 224 219 222 222 217 219 220 221 226 224 225 235 234 231 234 237 237 233 233 233 228 230 230 223 224 226 226 228 228 233 235 235 239 239 240 245 244 240 242 249 254 256 255 253 255 256 255 251 249 250 254 255 249 233 222 219 216
255 252 246 240 235 234 234 234 232 230 229 230 229 228 231 236 236 234 235 235 237 241 241 243 247 246 240 238 238 232 228 222 217 221 221 217 220 221 221 225 224 226 234 232 231 234 236 237 230 229 231 225 225 228 227 227 226 225 227 231 236 239 240 243 245 247 249 246 241 240 246 257 258 252 254 259 256 250 245 242 244 246 245 241 230 221 219 218
252 244 236 232 232 233 231 228 225 223 224 227 227 227 230 235 235 233 234 237 239 243 244 244 246 241 231 230 236 233 231 226 220 221 220 217 221 223 222 222 221 224 229 230 231 234 238 241 228 222 228 223 223 226 227 230 230 225 226 233 238 239 241 247 251 253 257 255 245 238 247 260 260 252 253 255 253 249 243 236 235 238 236 232 227 223 220 217
239 229 225 224 226 228 224 221 220 219 222 225 225 228 233 236 237 234 236 240 240 245 248 242 239 238 231 226 230 231 232 230 221 220 222 220 222 224 223 222 220 221 224 227 232 233 237 239 223 220 226 225 225 226 223 226 229 224 227 232 236 240 244 247 247 244 250 256 251 245 254 261 258 252 252 252 248 244 240 235 230 230 231 224 222 224 220 213
225 220 218 217 220 222 217 215 215 217 222 225 226 231 235 236 237 236 237 241 240 244 248 240 233 236 233 226 228 231 231 228 222 223 224 221 224 227 224 223 222 223 225 230 236 234 235 236 223 221 223 220 224 229 224 225 226 224 228 232 233 238 242 244 245 243 244 250 251 249 255 261 260 257 250 247 245 238 235 233 226 225 229 223 217 220 216 210
219 217 213 214 217 215 211 210 213 217 222 226 229 234 237 235 236 238 239 242 241 240 241 238 234 236 234 229 231 235 236 231 224 226 225 222 227 232 228 225 224 226 229 232 234 232 233 236 227 221 222 217 219 227 227 224 226 229 234 236 234 237 238 234 238 244 245 250 253 252 254 258 261 257 243 240 247 242 233 228 223 223 228 229 224 222 220 216
214 213 211 215 216 210 208 209 215 220 223 226 229 232 235 234 233 236 239 239 238 236 236 235 233 233 233 235 236 235 238 236 227 227 228 226 228 233 233 229 225 227 231 231 231 231 231 235 230 220 220 220 219 225 227 223 224 229 235 236 236 240 240 235 236 241 246 252 254 253 253 254 258 259 249 247 252 248 236 224 222 224 226 231 233 233 232 227
210 211 210 213 212 208 209 215 220 223 224 229 232 230 230 231 229 232 237 236 233 232 233 232 231 232 234 236 237 238 240 239 233 232 232 229 228 230 231 232 230 229 230 230 230 230 228 231 231 221 217 222 224 226 227 226 224 225 230 232 232 235 238 241 243 242 246 252 252 253 255 253 257 263 257 253 252 248 239 225 220 224 225 227 231 234 234 232
207 209 209 209 209 208 215 222 223 223 225 228 229 225 225 230 228 226 229 231 231 230 232 234 234 236 238 236 236 241 243 239 234 233 233 229 228 230 231 234 235 231 229 229 228 229 229 229 231 229 225 226 226 226 228 231 231 231 232 232 232 233 235 239 242 240 243 249 251 255 257 249 254 264 256 250 250 248 242 229 221 223 226 228 231 233 233 233
205 207 206 204 206 213 223 224 221 224 223 221 223 222 224 230 228 224 223 225 228 229 230 233 235 237 239 238 239 244 246 242 236 232 233 230 228 231 234 235 235 231 230 230 227 226 229 231 233 234 234 233 231 229 229 232 234 235 237 236 234 236 236 236 240 240 238 241 246 254 255 248 254 263 253 244 247 247 243 233 224 223 226 230 233 234 235 235
202 202 202 202 207 219 226 219 214 219 217 216 220 220 221 225 223 222 224 225 227 230 230 233 236 237 238 240 243 246 247 245 238 232 232 230 226 230 236 233 230 229 228 226 221 220 224 230 234 235 236 238 236 231 229 231 234 235 235 235 235 237 238 239 244 246 243 240 240 246 250 246 250 254 246 238 241 246 246 239 232 228 229 235 238 239 240 240
194 196 199 202 209 220 222 212 207 209 207 210 211 207 211 219 220 221 224 226 230 234 236 237 238 240 243 244 245 248 248 243 238 234 235 234 229 230 234 234 229 227 227 228 225 222 224 227 230 234 236 234 231 229 228 231 235 236 234 235 238 240 240 239 242 244 245 244 240 243 248 245 241 242 236 230 232 240 248 247 241 237 237 242 244 245 246 247
191 194 197 200 206 215 215 209 207 202 197 200 199 198 204 208 214 224 228 230 236 241 243 243 244 246 248 247 246 246 245 242 241 240 239 238 233 229 234 240 237 229 231 240 237 230 230 230 228 232 235 233 233 232 231 233 236 235 233 236 239 241 239 239 240 240 242 243 240 242 247 243 236 233 226 225 226 233 247 250 245 243 243 244 247 249 251 251
195 196 196 196 202 207 204 205 208 200 193 194 193 200 209 206 207 223 232 235 238 244 247 248 249 248 249 250 248 245 244 243 243 242 241 240 238 235 234 235 236 233 236 245 241 232 232 232 228 231 234 236 240 239 235 240 242 238 238 239 240 241 239 237 237 237 241 243 239 241 244 237 230 229 226 229 233 235 247 255 253 249 247 246 247 251 252 252
198 198 194 193 197 200 197 197 198 193 192 198 200 205 214 215 215 222 234 241 242 245 250 254 254 250 250 252 249 247 248 245 243 243 243 243 241 238 232 228 229 235 237 238 236 233 234 233 229 230 233 236 242 241 237 241 244 244 245 243 241 242 239 235 234 237 242 243 241 250 252 235 224 227 229 232 237 239 247 256 260 258 253 249 248 248 252 255
196 193 189 191 193 191 189 187 186 182 183 192 202 207 213 220 225 228 235 240 244 252 256 256 259 256 254 253 250 250 250 245 243 243 243 243 242 236 230 226 227 235 234 228 226 230 235 234 229 229 232 232 236 238 236 238 241 244 246 244 242 242 239 235 236 241 245 243 244 253 252 234 226 233 235 238 241 240 239 243 250 253 249 249 249 249 254 260
191 185 184 191 189 179 174 176 179 178 179 190 199 204 212 221 227 233 242 245 246 258 264 258 260 261 257 255 254 253 250 245 242 242 243 245 243 237 232 227 227 232 231 226 225 228 233 234 230 229 229 226 228 233 233 231 233 237 241 240 238 238 237 235 238 242 244 242 239 236 233 234 242 243 238 240 242 239 235 238 246 250 250 251 250 250 259 269
189 184 181 184 180 172 170 174 179 179 185 203 203 199 215 232 231 233 246 255 254 259 265 263 263 263 259 259 257 252 249 247 244 243 246 245 240 237 234 232 232 232 230 230 231 231 233 233 231 231 229 224 223 228 230 229 230 230 234 237 236 234 234 235 238 240 240 238 234 230 231 238 243 241 235 234 237 235 231 237 247 252 251 249 247 250 263 278
187 183 182 181 176 176 176 175 182 187 190 204 206 202 215 232 252 246 248 264 269 270 272 272 270 265 259 257 253 246 244 249 250 250 249 245 242 241 238 236 237 236 231 230 231 232 233 231 228 231 233 226 221 224 225 227 231 233 235 243 243 238 237 237 236 236 238 239 235 232 235 236 234 232 229 225 227 227 226 235 244 246 243 239 241 250 259 271
182 181 183 183 179 183 184 179 186 194 192 197 202 206 223 240 252 257 260 263 268 276 285 284 279 271 262 253 247 245 248 253 255 254 249 245 243 243 241 239 238 235 231 227 225 225 226 224 223 228 233 227 219 222 223 224 231 234 237 247 247 241 242 240 234 235 240 240 236 236 238 233 226 225 224 220 222 223 225 234 235 233 233 234 236 240 240 249